Theta_e
301 300 301 300 301 300 299 298 297 298 299 298 299 299 300 300 299 300 301 303 304 305 307 308 308 308 308 307 305 304 302 301 300 300 299 298 297 296 295 294 294 293
300 299 299 299 298 297 298 298 298 299 299 298 298 298 298 298 297 298 299 301 302 303 305 307 307 307 307 306 305 303 302 301 300 300 299 298 297 296 296 295 294 294
298 298 298 298 299 298 298 298 298 298 299 299 298 297 297 297 298 298 299 300 301 302 303 305 306 306 306 306 305 303 301 300 300 299 298 298 297 296 296 295 294 293
297 298 299 298 298 298 297 297 297 297 297 297 297 298 298 298 299 299 300 299 300 301 302 303 304 304 305 305 304 302 301 301 300 299 298 297 297 296 295 295 294 294
297 297 297 297 297 297 296 297 297 297 297 298 298 297 297 297 297 298 298 298 298 298 298 300 301 302 302 302 302 301 300 300 298 298 296 295 295 295 295 294 294 293
295 296 296 297 297 296 296 297 297 297 297 297 298 297 297 297 297 296 295 296 296 296 297 298 298 299 299 300 300 300 298 297 296 296 295 295 295 294 294 294 293 292
295 294 295 295 295 296 296 297 296 296 297 297 294 296 295 295 296 295 295 296 295 294 295 296 296 296 295 295 295 296 296 296 295 295 295 294 294 293 293 293 293 293
294 293 294 294 294 294 295 296 295 294 294 292 294 293 294 294 294 294 294 293 294 294 294 294 295 297 295 294 294 295 295 296 295 294 294 294 293 293 292 292 292 292
292 292 291 291 292 292 292 293 292 291 291 292 292 291 292 293 293 293 293 293 293 293 294 293 294 294 294 293 294 295 295 295 295 294 294 294 293 293 293 292 291 291
291 290 290 290 291 292 292 291 291 291 290 291 292 291 292 291 292 293 293 293 293 293 293 293 293 292 292 293 294 294 295 295 294 294 294 294 294 294 293 291 291 290
290 289 290 290 291 291 291 290 289 289 289 291 290 291 291 291 290 291 292 292 293 293 293 293 293 293 293 293 293 293 294 295 294 294 294 294 294 294 292 291 290 290
290 289 290 290 290 290 290 289 288 289 290 289 290 291 291 291 291 291 292 292 292 293 293 293 293 293 293 293 293 293 293 293 293 293 293 293 293 293 293 291 291 290
291 291 291 290 290 289 287 288 288 288 289 290 289 290 291 291 290 291 291 292 292 292 292 292 292 293 293 293 292 292 292 292 292 292 292 292 293 293 292 292 291 291
292 291 289 289 288 287 288 288 288 288 288 288 288 289 290 291 291 290 290 290 292 292 292 292 292 292 292 292 292 292 292 291 292 292 292 291 291 291 291 291 290 290
291 288 288 288 287 287 287 288 288 288 287 287 288 289 290 290 290 289 289 289 290 291 291 291 291 291 292 292 291 291 291 291 291 291 291 291 291 291 290 290 289 289
290 288 288 286 287 288 288 288 287 287 287 287 288 288 289 289 288 288 289 289 289 290 290 291 291 291 290 291 291 291 291 291 291 291 290 290 289 289 288 287 287 287
289 288 287 288 288 287 287 287 287 287 287 287 287 287 288 288 287 288 288 289 289 289 289 290 290 290 290 292 292 293 291 291 290 290 289 289 288 288 287 286 286 286
288 288 288 288 287 287 287 287 286 286 286 287 287 287 287 286 286 288 288 288 288 288 289 289 290 289 291 291 292 292 291 290 289 289 288 288 288 288 288 287 286 285
288 288 288 288 288 287 287 286 286 286 286 286 286 287 285 286 287 287 287 287 287 287 288 288 289 290 291 291 291 292 292 290 288 288 287 287 287 287 287 286 285 284
287 287 287 288 287 286 285 286 285 286 287 287 286 285 285 286 286 286 287 286 287 287 287 287 287 288 291 291 291 291 292 291 288 287 287 287 287 286 286 286 285 284
286 287 287 287 286 286 285 285 286 286 286 286 286 286 285 285 286 285 286 286 286 286 286 286 287 289 290 291 291 291 292 291 288 287 287 286 286 286 286 285 285 284
286 287 287 286 286 285 285 286 286 286 286 285 285 284 284 284 284 285 285 285 286 286 285 286 286 289 290 290 291 291 292 289 288 286 286 285 285 285 285 285 284 284
286 286 287 286 286 285 285 286 286 285 285 284 284 284 284 284 284 284 285 285 285 285 284 285 285 287 289 289 290 291 290 288 287 286 286 285 285 284 284 284 284 283
286 285 286 286 286 286 286 286 286 285 285 284 284 284 283 284 283 283 283 283 284 284 284 284 284 285 288 289 289 290 289 287 286 286 285 284 284 284 283 283 283 283
285 284 285 286 286 287 286 286 286 286 285 282 283 283 284 283 282 282 282 282 282 283 283 284 284 284 287 288 289 289 288 287 286 285 284 283 283 282 282 282 282 282
284 284 284 285 286 286 286 286 285 283 282 282 282 282 282 281 281 281 281 282 281 281 282 283 283 282 284 287 288 288 289 287 286 285 283 283 282 282 280 280 280 280
Wind_Speed
7 6 7 7 7 7 7 7 6 7 8 7 8 8 8 7 6 7 8 7 8 8 8 8 8 9 10 10 10 10 9 11 11 11 13 13 13 14 13 15 14 13
7 6 6 5 5 4 5 7 7 8 8 8 7 7 6 5 6 7 7 7 8 9 8 8 7 8 9 9 10 10 10 10 12 9 11 13 13 13 14 15 14 12
6 6 6 7 7 7 7 7 7 7 7 7 6 6 6 6 7 6 7 7 8 9 9 8 7 7 8 8 9 9 10 11 12 11 11 13 12 12 13 12 11 12
7 7 7 7 6 7 6 6 6 6 6 6 7 7 7 6 7 8 8 8 8 8 7 8 8 6 7 8 9 9 10 11 11 11 12 11 11 12 12 11 11 11
7 7 6 6 6 6 5 7 8 7 8 8 6 6 7 7 7 7 7 7 7 7 7 8 7 7 6 7 7 8 9 10 9 9 10 11 10 11 11 10 11 13
5 6 6 7 7 7 8 8 8 8 8 7 8 7 7 7 7 7 7 7 6 7 7 7 8 7 6 6 7 8 8 8 8 9 10 11 11 10 9 11 12 13
7 7 7 7 7 7 9 8 7 8 8 8 5 8 7 8 8 8 7 8 7 7 8 8 8 8 6 6 6 7 8 8 8 9 11 10 9 10 10 11 12 13
7 6 7 6 7 8 9 8 7 7 7 5 8 7 7 8 8 7 7 7 7 7 7 7 8 9 7 6 8 8 9 8 8 9 10 10 9 11 10 10 11 13
6 7 6 7 8 8 9 9 8 6 6 8 8 6 7 8 8 8 7 7 7 7 7 7 8 8 7 7 9 9 10 9 9 10 11 12 12 13 13 11 11 12
8 7 7 8 9 9 10 9 7 7 6 8 7 6 8 7 7 7 7 8 8 8 8 8 8 7 7 8 10 10 10 10 10 10 11 12 13 13 12 11 13 13
8 7 8 9 11 9 10 7 6 6 6 8 6 8 7 7 7 6 8 8 9 9 8 9 9 8 9 9 9 9 10 10 10 10 11 12 12 12 12 12 13 14
9 8 10 11 10 9 9 6 6 7 7 7 7 8 7 8 8 8 8 9 8 9 9 9 8 9 10 10 10 10 10 9 9 10 10 11 11 11 11 11 13 14
9 10 10 9 9 8 5 6 7 7 7 9 7 8 9 9 8 8 8 9 9 8 9 9 8 9 9 10 9 9 10 10 10 10 10 9 10 11 11 11 12 12
11 8 7 7 6 5 6 7 7 7 7 6 5 9 10 9 9 9 8 8 9 9 9 8 8 9 9 9 9 9 9 9 9 10 10 10 10 10 10 10 11 12
7 5 5 5 5 6 7 7 7 7 6 6 7 8 8 8 7 8 8 9 8 9 8 7 8 10 8 9 9 9 9 9 10 10 10 10 10 10 9 10 10 10
6 5 5 4 6 8 8 7 7 7 7 7 8 9 8 8 7 7 9 10 9 9 8 8 9 8 10 14 12 10 9 9 9 10 10 9 9 9 8 9 10 10
5 5 4 6 7 7 7 7 7 6 7 8 9 8 9 9 7 9 11 10 10 10 10 9 9 9 14 12 15 17 11 10 10 10 9 9 9 9 10 10 9 8
5 5 6 7 6 7 6 6 6 6 8 8 8 9 9 6 9 12 10 9 9 9 10 10 10 11 15 15 16 18 15 10 9 9 9 9 9 10 10 9 9 9
6 6 6 6 7 7 6 6 7 7 9 9 11 9 6 9 11 9 10 9 9 10 11 10 9 11 15 17 16 17 18 15 9 9 8 9 10 10 10 9 8 8
5 5 7 8 7 6 5 6 7 10 9 8 7 6 8 9 8 11 10 10 10 11 11 9 10 11 17 17 17 18 18 16 10 10 9 9 10 10 9 9 9 10
5 5 7 7 6 5 6 7 9 8 7 7 8 9 9 10 10 10 11 10 10 9 9 10 10 13 15 17 17 18 18 16 10 9 9 9 9 9 9 10 10 10
5 6 7 6 5 5 7 8 8 8 9 7 7 7 7 7 7 8 9 10 10 10 10 11 9 13 15 16 17 16 17 11 9 9 9 9 9 9 9 10 10 10
6 6 7 7 6 6 8 8 8 9 8 5 7 8 8 9 9 9 9 9 10 9 11 11 9 11 15 17 16 17 13 8 8 8 9 10 10 9 10 10 10 11
6 5 7 7 6 8 9 8 7 6 7 6 9 9 9 10 8 8 8 8 10 11 11 11 10 10 15 16 17 17 13 9 8 8 9 9 8 7 7 7 9 13
6 6 6 7 7 8 8 9 8 8 6 5 8 7 9 6 7 8 8 8 9 10 11 12 10 9 14 16 16 16 13 8 8 7 9 9 7 8 6 6 6 8
6 6 6 6 8 8 7 8 6 5 6 6 7 7 7 7 7 8 9 9 8 9 9 10 10 9 9 15 17 17 18 10 8 8 10 9 8 8 7 6 7 7
Wind_Direction
213 205 210 207 213 207 199 199 201 207 212 210 212 214 210 209 197 205 214 220 232 241 237 230 217 210 207 200 199 198 200 204 205 202 206 205 213 211 209 207 205 205
218 214 216 215 216 204 206 198 204 205 215 211 215 211 211 198 206 202 214 220 227 236 239 235 223 215 207 202 198 196 200 202 207 203 205 207 213 212 216 212 211 211
218 217 215 214 214 212 209 206 205 211 214 216 210 206 209 202 207 206 211 220 231 235 235 237 234 221 213 209 200 201 204 204 208 202 204 210 210 211 214 209 209 208
220 218 217 222 219 219 212 209 215 215 216 218 213 207 203 205 205 210 211 212 227 235 236 237 237 232 222 213 204 205 207 209 211 204 206 208 210 209 210 206 210 210
215 218 220 222 223 222 213 216 218 213 214 218 213 205 209 206 210 217 215 215 213 225 231 238 239 237 225 220 210 214 211 213 207 203 205 210 210 204 209 203 207 211
221 215 217 219 220 216 218 221 219 214 216 217 214 207 209 208 212 213 210 215 215 218 225 231 233 234 228 225 215 216 210 212 210 202 208 211 211 206 205 205 207 210
218 212 220 217 224 220 225 226 221 216 217 216 209 216 202 211 213 212 210 210 214 216 222 226 229 233 225 223 221 221 218 214 208 204 209 214 210 212 211 208 210 212
222 220 218 218 225 226 229 228 220 215 213 210 217 218 200 211 212 210 210 206 209 217 220 224 228 231 225 220 223 224 222 213 211 207 211 215 209 215 211 212 212 215
219 222 213 221 225 230 233 229 223 219 205 213 219 216 211 209 208 207 209 209 209 214 216 220 224 227 224 217 226 225 223 219 214 209 210 211 211 214 211 208 211 215
223 221 214 221 225 229 232 229 223 221 208 219 220 212 214 214 209 208 208 209 214 213 213 218 221 221 222 220 225 224 225 223 217 216 216 217 216 216 211 204 210 212
230 216 220 224 228 228 232 227 224 223 217 222 217 221 219 210 217 209 211 209 212 213 214 217 218 217 221 224 224 224 225 224 220 220 220 220 220 217 212 207 208 212
237 225 224 226 228 232 231 224 221 219 221 225 215 222 219 216 212 210 210 213 214 214 214 218 215 217 222 225 224 222 225 226 225 222 224 225 223 221 216 209 209 212
237 232 231 232 227 226 223 223 225 224 220 225 213 219 220 219 218 216 216 213 217 213 216 215 215 217 223 225 225 223 222 223 224 223 224 225 226 223 219 215 214 214
240 234 232 235 236 231 224 221 221 221 225 230 217 224 224 220 217 217 221 215 218 214 217 212 215 222 225 225 224 222 221 226 224 224 224 225 227 224 221 219 217 215
253 240 230 230 224 226 227 228 226 223 217 216 223 233 230 229 222 217 222 226 225 218 214 208 216 223 222 220 220 220 220 224 224 224 222 224 224 224 222 219 219 218
256 250 235 222 222 227 229 227 222 218 216 220 223 226 233 229 226 221 223 226 224 222 218 214 220 222 222 219 214 214 215 221 223 226 224 224 222 222 223 222 223 218
263 256 233 231 229 231 230 226 222 215 217 223 226 221 224 227 218 224 227 225 225 222 219 220 223 222 219 216 218 217 215 218 219 222 221 222 221 219 220 216 220 221
263 257 242 243 233 236 229 226 220 217 222 224 227 226 226 209 219 227 229 227 229 228 227 224 225 218 218 218 217 220 217 218 219 221 217 219 218 220 221 217 216 214
256 250 250 248 241 236 226 217 216 221 224 223 226 224 215 213 226 228 231 229 226 228 230 228 230 213 217 219 219 218 219 216 219 217 215 218 216 217 218 216 211 209
258 252 251 248 243 234 224 223 220 227 227 225 229 220 218 226 226 227 229 227 225 227 232 231 230 218 217 218 218 218 218 215 218 213 218 218 217 215 214 212 207 206
271 258 256 255 245 234 226 229 228 236 231 226 222 221 219 223 224 227 229 228 229 229 233 234 231 221 221 221 221 220 219 217 219 215 218 221 219 216 212 210 207 207
279 276 270 265 253 239 233 237 233 230 232 223 224 230 230 232 236 227 232 228 227 226 230 238 234 222 223 224 224 222 215 215 216 215 219 220 220 215 212 210 207 202
286 279 279 275 264 256 250 247 242 238 237 213 226 227 226 226 229 225 226 227 228 225 228 237 234 223 222 223 223 221 213 214 212 217 221 222 223 217 215 212 208 203
279 271 274 275 270 259 260 260 252 252 240 208 221 227 229 228 224 232 228 223 224 226 221 230 233 222 223 225 222 219 210 210 210 215 223 223 229 221 219 219 215 208
277 268 260 264 264 260 257 261 254 246 243 216 231 231 238 226 221 229 234 227 226 227 223 225 232 224 221 226 223 219 211 209 209 215 222 224 218 223 217 218 214 211
280 272 264 258 263 266 261 255 259 261 245 230 237 231 243 232 226 228 233 234 223 227 228 223 227 226 215 220 220 217 210 203 206 209 220 218 214 215 210 213 208 208